Temperature
22 23 23 24 24 25 25 24 25 25 24 24 24 25 26 25 23 23 23 23 22 22 21 19 18 18 17 17 16 15 15 14 14 13 13 13 13 12 12 12 12 12 12 12
22 23 24 25 24 24 24 24 24 25 24 24 25 25 26 25 24 24 24 24 23 22 21 19 18 18 17 17 16 15 15 14 13 13 13 12 12 12 12 12 12 12 12 12
23 24 24 24 23 23 24 24 24 24 24 24 24 25 26 25 24 23 22 23 23 22 21 20 18 18 17 16 16 15 15 14 13 13 13 12 12 12 12 12 12 11 12 12
24 24 23 23 24 24 24 24 24 23 24 25 24 24 26 26 24 24 23 22 22 21 21 20 19 18 17 16 16 15 15 14 13 13 13 13 12 13 12 12 12 12 11 12
23 23 24 24 24 24 24 23 23 23 24 24 25 24 26 25 25 25 24 23 22 21 20 20 19 18 17 16 16 15 15 14 13 13 13 12 12 12 12 12 12 12 12 11
23 23 24 24 23 23 23 23 23 24 24 24 25 24 25 26 26 25 25 23 22 21 20 19 18 18 17 16 16 15 15 14 14 13 13 12 12 12 12 12 12 12 12 12
23 23 23 23 23 23 23 24 24 24 24 24 24 23 25 26 25 24 24 23 22 21 20 19 18 18 17 17 16 15 15 14 14 13 13 13 12 12 12 12 12 12 12 12
23 23 23 24 24 24 24 25 24 23 23 24 24 24 26 25 23 22 22 22 22 21 20 19 19 18 18 17 16 16 15 14 14 14 13 13 13 12 12 12 12 12 12 12
24 24 23 23 24 25 24 24 25 24 24 23 25 25 26 24 24 23 22 22 21 21 20 19 19 18 18 17 16 16 15 15 14 14 13 13 13 13 12 12 12 12 12 12
25 24 23 23 24 23 24 25 24 24 23 23 24 24 25 25 25 24 23 23 22 21 20 19 19 18 18 17 16 16 15 15 14 14 14 13 13 13 13 12 12 12 12 12
25 25 23 23 24 24 23 24 24 24 24 23 23 24 26 25 25 24 24 23 22 21 20 19 19 18 18 17 16 16 16 15 15 14 14 14 13 13 13 13 13 12 12 12
24 25 24 24 24 23 24 24 24 24 24 23 23 24 26 24 24 23 24 23 22 21 20 19 19 18 18 17 17 16 16 15 15 15 14 14 14 14 13 13 13 13 12 12
24 24 24 24 23 23 23 23 23 24 24 24 23 24 26 25 24 23 23 23 22 20 20 19 19 18 18 17 17 16 16 16 15 15 15 14 14 14 14 13 13 13 13 13
23 25 24 24 24 24 24 23 22 23 24 24 24 25 26 26 25 25 23 22 22 21 20 19 19 18 18 18 17 16 16 16 16 15 15 15 14 14 14 14 14 13 13 13
24 24 25 25 24 24 24 24 23 23 24 24 25 25 26 26 26 25 24 23 22 21 20 19 19 19 18 18 17 17 16 16 16 15 15 15 15 14 14 14 14 13 13 13
23 24 24 24 24 23 23 24 24 23 23 24 24 24 26 26 25 24 23 22 21 21 20 20 19 19 18 18 17 17 17 16 16 16 15 15 15 15 14 14 14 13 13 13
24 24 23 24 24 23 23 25 24 24 24 24 24 25 26 25 25 24 23 23 22 22 21 20 20 19 19 18 18 17 17 16 16 16 16 15 15 15 14 14 14 14 13 13
23 23 23 23 23 22 25 25 24 24 24 25 24 25 25 25 24 23 23 22 22 21 21 20 20 19 19 18 18 17 17 17 16 16 16 15 15 15 15 14 14 14 13 13
22 22 22 23 22 23 24 25 23 23 24 25 24 24 24 23 22 23 22 22 22 21 21 20 20 19 19 18 18 17 17 17 16 16 16 15 15 15 15 14 14 13 13 13
20 21 22 22 22 22 24 24 22 23 24 24 24 23 23 22 24 25 23 22 21 21 21 20 20 19 19 18 18 17 17 17 16 16 16 15 15 15 15 14 14 13 13 13
21 21 21 22 22 23 24 22 22 23 23 23 22 22 22 22 24 23 22 21 21 21 21 21 20 19 19 18 18 17 17 17 16 16 16 15 15 15 14 14 13 13 13 12
22 22 21 22 21 22 22 22 22 23 22 22 21 21 21 21 21 20 20 21 21 21 21 20 20 19 19 18 18 17 17 17 16 16 16 15 15 14 14 14 13 13 12 12
21 22 22 22 22 22 20 21 20 20 20 20 20 20 20 20 20 20 20 20 20 20 20 20 20 19 19 18 18 17 17 17 16 16 16 15 14 14 14 13 12 12 12 11
21 20 20 20 22 21 20 19 19 18 19 19 19 19 19 19 19 19 19 19 19 20 20 20 19 19 19 18 18 17 17 16 16 16 15 14 14 13 13 12 12 11 11 10
19 19 19 19 21 20 20 19 18 18 18 18 18 18 18 18 19 19 19 19 19 19 20 20 19 19 18 18 18 17 17 16 15 15 15 14 13 13 12 12 11 11 11 11
18 18 18 18 19 19 18 18 17 16 16 17 17 17 17 18 18 18 19 19 19 19 19 19 19 19 18 18 17 17 16 16 15 14 14 14 13 13 12 11 11 10 10 10
Wind_Speed
13 12 13 14 13 6 5 6 7 4 2 5 10 12 9 8 10 11 11 12 11 10 8 7 8 8 7 6 4 3 1 0 1 2 3 3 3 4 4 4 5 6 6 6
12 14 13 10 9 7 7 7 7 4 2 6 9 12 10 9 11 11 12 12 12 10 9 9 9 9 8 6 4 3 2 0 1 2 3 3 4 4 4 4 4 6 6 6
14 9 10 10 10 10 9 9 7 6 3 5 7 9 7 6 7 9 10 11 11 10 10 10 10 10 8 7 5 4 2 1 0 1 2 2 2 3 2 3 4 5 6 5
8 6 11 12 11 10 9 5 6 7 7 5 4 8 6 3 6 9 10 11 11 11 10 10 10 10 9 7 6 4 3 2 1 1 2 3 4 4 5 5 5 5 5 5
7 8 11 12 10 9 4 0 3 6 8 9 7 8 5 2 6 7 9 11 11 11 11 11 11 10 8 7 6 5 4 3 2 2 2 3 3 4 4 4 5 5 4 5
4 4 5 5 3 4 5 4 3 5 6 8 5 6 6 3 3 3 5 9 11 11 11 11 10 9 8 8 7 5 5 3 3 3 3 3 4 4 5 5 5 5 4 4
6 6 4 4 6 6 7 6 4 5 5 4 1 6 6 2 2 3 3 5 9 11 12 11 11 11 10 9 8 7 6 5 4 4 4 3 4 5 5 5 4 5 5 4
8 8 7 6 6 6 8 8 5 4 5 5 3 6 4 1 3 4 4 4 8 11 11 11 11 11 10 10 9 8 7 5 4 4 4 3 3 4 4 4 4 4 4 4
5 5 5 3 2 4 5 6 4 6 6 7 5 5 6 3 5 5 5 6 9 10 11 11 11 10 10 10 9 9 7 6 5 5 4 4 4 4 4 4 4 4 4 4
2 4 5 5 5 1 2 3 4 5 5 7 6 7 4 2 4 6 7 8 9 9 10 11 10 10 10 9 9 8 8 7 6 5 4 3 4 4 4 4 4 4 4 4
3 3 6 6 6 6 6 5 5 5 6 6 7 5 2 4 3 6 8 8 8 10 10 10 10 10 9 9 9 9 8 7 6 5 5 4 4 4 4 4 4 4 4 4
2 3 4 5 2 2 6 7 8 8 7 7 8 7 0 4 5 6 8 8 8 9 10 10 10 10 10 10 10 9 8 8 7 6 5 5 4 4 4 4 4 4 4 4
2 4 4 5 5 5 5 6 8 8 8 9 10 8 2 4 5 6 8 9 9 9 10 10 10 10 11 10 10 9 8 8 7 6 6 6 5 5 5 4 4 4 4 4
3 5 7 6 5 3 5 7 9 10 11 12 14 15 12 10 10 9 9 10 10 10 11 11 11 11 11 10 10 10 9 8 7 7 6 6 5 4 4 4 4 4 5 5
4 7 8 8 7 7 9 11 11 15 16 17 17 16 16 14 12 11 10 10 11 12 12 13 13 12 12 11 10 10 9 8 8 7 7 6 5 4 4 4 4 5 5 5
4 7 9 10 8 9 12 14 15 16 17 18 19 20 18 15 12 11 12 12 13 14 14 14 14 13 13 13 12 11 10 9 8 8 7 5 5 4 4 4 4 4 5 5
5 7 10 12 8 9 13 12 12 12 13 15 18 17 14 12 12 12 12 13 15 15 14 14 14 14 13 13 12 11 10 9 8 8 6 5 5 4 4 4 4 4 5 4
9 10 8 11 11 13 8 3 6 10 13 14 15 16 15 14 12 10 10 12 13 13 13 14 13 13 13 12 12 11 10 9 9 7 6 5 5 4 4 3 3 4 4 3
10 9 8 9 12 12 10 7 5 7 10 8 11 13 13 9 8 10 11 11 12 12 12 12 13 13 13 13 12 12 11 10 9 7 6 5 5 4 3 3 3 3 3 3
5 8 9 9 11 11 7 2 2 6 6 7 8 10 9 4 6 6 3 7 9 9 9 11 12 13 13 13 12 12 11 10 9 7 6 5 4 4 3 3 3 2 2 2
4 6 10 13 13 10 5 1 3 5 5 11 11 11 8 6 8 8 4 4 7 8 10 11 12 12 13 13 13 13 12 10 8 7 6 5 4 3 3 2 2 2 2 2
8 7 9 9 11 8 2 1 2 6 10 11 12 12 11 11 11 9 6 4 6 8 10 12 12 12 12 13 14 13 11 9 8 7 6 5 4 3 3 2 1 1 1 1
7 7 6 7 6 3 2 4 7 9 12 13 14 14 13 13 11 10 7 6 7 9 10 11 12 12 12 13 13 13 11 10 10 9 7 6 5 4 3 2 2 1 0 1
8 5 7 9 9 9 9 7 8 10 13 14 15 15 14 14 13 10 8 7 8 9 10 11 13 13 13 13 12 11 12 11 11 10 8 7 6 5 4 2 1 1 1 0
11 8 11 15 15 14 10 10 12 15 15 16 16 15 14 14 14 12 9 8 8 9 10 12 13 14 14 13 13 12 12 12 12 10 9 7 6 5 4 4 3 2 3 3
14 14 16 17 15 15 17 17 18 17 17 17 17 17 15 13 14 13 11 9 9 10 11 12 14 14 15 15 14 13 13 13 12 10 9 7 6 6 5 5 5 7 6 7
Wind_Direction
173 186 196 199 209 229 225 233 250 262 227 244 257 264 254 222 222 225 219 215 215 215 202 189 189 184 184 183 184 176 199 81 357 354 345 343 347 340 343 346 347 336 333 332
174 200 199 197 203 218 226 240 255 268 265 257 275 273 265 238 230 230 227 218 213 207 197 186 187 185 190 185 184 185 178 133 21 11 350 343 339 332 339 330 337 339 337 333
186 186 181 191 199 213 228 240 260 277 273 236 283 275 255 224 223 226 228 226 215 206 202 190 189 189 189 188 186 183 180 169 146 8 341 328 325 306 328 346 344 342 339 335
191 171 186 201 211 222 235 245 256 260 262 270 274 295 283 233 233 221 215 211 207 199 199 190 189 190 191 187 182 185 183 189 180 249 318 335 331 342 347 339 338 333 340 342
181 184 193 208 217 221 234 164 229 243 260 277 256 275 281 218 243 219 208 206 203 195 192 190 190 189 187 180 179 186 187 194 202 251 286 297 317 333 334 331 335 336 347 344
144 172 204 209 185 197 157 164 177 220 252 266 270 265 281 242 240 211 196 202 201 193 188 188 185 184 181 177 178 184 193 199 207 236 258 282 308 317 325 331 340 338 342 342
163 164 161 163 154 163 199 224 240 235 237 265 177 257 266 287 275 264 243 203 197 191 188 185 184 185 184 183 186 190 197 207 213 230 250 269 288 303 311 323 337 334 341 346
181 176 178 191 207 195 205 232 256 280 284 296 230 253 269 256 263 260 245 215 191 189 190 189 189 188 187 188 190 195 203 212 215 230 247 261 276 291 309 310 318 325 333 340
193 160 142 178 207 205 191 221 273 285 288 285 271 267 279 221 229 216 204 193 192 190 190 191 190 190 189 191 193 198 205 213 217 228 239 252 271 287 297 292 295 312 320 327
225 165 154 155 161 76 283 186 201 250 281 283 283 276 279 258 227 206 203 200 194 189 190 192 192 192 192 193 193 196 207 215 216 224 234 246 264 277 283 285 294 304 311 320
249 191 161 183 213 210 182 201 229 249 267 280 289 291 332 287 276 234 216 208 199 194 194 193 192 192 191 190 192 196 204 211 215 222 229 236 248 261 266 267 276 281 289 297
240 252 199 192 151 302 241 239 230 252 257 253 276 284 196 257 267 250 232 215 206 202 197 193 190 187 188 192 195 199 203 207 211 218 225 235 247 250 257 260 263 269 275 284
199 244 228 197 192 195 220 226 234 253 265 256 259 272 169 241 253 239 231 221 208 200 196 192 190 190 190 192 196 200 204 207 206 210 221 232 239 246 254 261 264 267 270 274
247 254 265 273 298 269 238 224 221 229 252 259 256 271 276 268 261 247 230 221 212 204 199 196 194 195 194 194 197 201 203 202 203 206 219 232 241 244 252 258 265 267 270 274
250 268 270 278 281 268 266 259 236 236 254 266 274 276 278 279 272 260 242 224 213 208 204 201 199 198 194 195 198 199 200 199 199 205 217 228 234 237 246 254 257 263 267 272
256 270 274 272 268 266 267 265 255 249 256 262 269 273 277 279 272 256 240 225 218 213 209 204 201 198 197 196 196 194 195 197 198 206 214 216 227 232 242 254 260 267 269 273
252 262 274 278 281 278 271 267 259 251 245 254 265 273 283 278 262 252 244 229 223 218 209 203 201 198 198 196 193 191 194 191 195 202 207 210 218 226 240 249 257 263 267 272
252 255 264 277 278 269 286 298 270 265 268 264 266 275 282 281 278 267 250 233 225 218 209 202 199 195 194 191 188 186 185 188 194 199 202 204 213 224 234 246 259 266 275 276
237 242 252 263 270 274 282 278 250 260 280 296 281 284 295 298 281 256 236 227 225 214 205 198 194 188 186 184 182 182 183 188 193 197 201 199 205 214 225 237 252 265 274 277
209 227 243 248 261 270 286 349 250 262 269 8 345 326 319 293 265 274 245 216 216 205 192 184 182 182 181 179 178 183 186 188 191 191 193 190 195 205 220 236 254 257 256 265
213 217 234 248 258 266 305 358 201 251 333 357 346 339 326 286 284 320 312 230 205 188 179 174 175 179 179 174 177 186 188 189 183 176 174 175 180 192 205 220 234 247 253 260
262 253 245 248 254 262 69 118 280 331 342 339 339 336 322 304 304 308 289 245 198 181 175 175 176 176 174 174 180 186 185 175 164 161 164 168 170 172 173 182 211 244 251 242
252 265 274 253 271 359 357 313 328 330 323 327 329 327 320 308 301 299 283 251 216 194 181 179 178 172 172 177 184 184 173 162 160 160 162 163 160 155 160 167 173 183 218 264
264 273 268 268 271 295 304 306 318 324 320 318 317 316 312 302 298 291 278 250 224 205 189 181 178 177 177 177 181 178 164 163 164 165 164 165 164 157 147 134 133 114 64 41
276 274 273 275 284 295 292 312 322 322 319 318 319 314 307 299 291 284 271 251 227 211 196 189 188 186 180 174 174 169 165 168 170 168 166 166 161 155 144 125 83 78 62 40
262 264 269 275 290 294 297 309 317 316 314 316 315 312 308 297 287 281 270 254 231 214 202 197 194 189 182 176 172 169 169 172 173 172 170 167 162 158 155 143 119 69 74 74
Height
1495 1498 1499 1498 1498 1498 1499 1503 1503 1501 1502 1505 1502 1499 1497 1501 1504 1505 1506 1508 1510 1513 1516 1517 1518 1519 1521 1522 1522 1522 1522 1521 1520 1519 1518 1517 1516 1514 1512 1510 1508 1506 1505 1503
1496 1495 1493 1495 1498 1501 1502 1504 1503 1501 1503 1503 1500 1497 1493 1496 1498 1500 1501 1503 1506 1510 1513 1514 1516 1517 1519 1520 1521 1521 1521 1520 1519 1517 1517 1515 1514 1513 1511 1509 1508 1506 1504 1502
1491 1491 1494 1498 1500 1502 1502 1504 1503 1504 1503 1502 1502 1495 1489 1491 1495 1497 1499 1501 1503 1507 1509 1512 1514 1515 1517 1518 1519 1519 1519 1519 1518 1517 1516 1515 1514 1513 1512 1510 1507 1505 1503 1502
1490 1493 1495 1497 1498 1499 1503 1500 1503 1504 1505 1500 1503 1503 1489 1488 1491 1493 1495 1498 1500 1504 1507 1509 1511 1513 1515 1516 1517 1518 1518 1518 1517 1516 1516 1515 1514 1513 1511 1509 1507 1505 1503 1501
1492 1492 1494 1496 1495 1497 1499 1502 1502 1503 1502 1501 1498 1502 1489 1487 1487 1487 1490 1494 1497 1501 1504 1507 1509 1511 1513 1514 1515 1516 1516 1516 1516 1515 1514 1514 1514 1512 1511 1509 1507 1505 1503 1501
1492 1494 1493 1494 1497 1499 1502 1503 1503 1502 1500 1507 1498 1501 1494 1483 1484 1484 1487 1491 1495 1498 1501 1504 1507 1509 1511 1512 1513 1514 1515 1515 1514 1514 1514 1513 1512 1511 1510 1509 1507 1505 1504 1501
1494 1494 1495 1496 1499 1501 1501 1502 1508 1508 1507 1503 1498 1501 1491 1481 1483 1485 1487 1489 1492 1496 1499 1502 1504 1506 1508 1510 1511 1512 1513 1513 1513 1513 1513 1512 1511 1510 1509 1508 1507 1505 1504 1502
1494 1496 1493 1494 1493 1495 1496 1497 1507 1514 1510 1499 1497 1497 1483 1481 1484 1486 1487 1488 1491 1494 1496 1499 1502 1504 1506 1507 1509 1510 1511 1512 1512 1512 1512 1511 1510 1510 1509 1507 1506 1505 1503 1501
1488 1493 1492 1493 1494 1492 1495 1494 1492 1498 1500 1504 1492 1487 1479 1479 1481 1484 1485 1487 1489 1491 1494 1497 1499 1501 1503 1505 1507 1508 1509 1510 1510 1511 1510 1510 1510 1508 1507 1506 1505 1504 1502 1500
1484 1491 1492 1494 1494 1496 1493 1492 1497 1500 1508 1508 1498 1491 1484 1477 1478 1480 1483 1485 1487 1489 1492 1494 1496 1499 1501 1503 1505 1506 1507 1508 1509 1509 1509 1509 1508 1507 1506 1505 1504 1503 1502 1500
1484 1487 1493 1492 1492 1491 1496 1496 1494 1494 1498 1506 1505 1492 1475 1476 1477 1478 1480 1483 1485 1487 1489 1492 1494 1496 1498 1500 1502 1504 1505 1506 1507 1507 1507 1507 1507 1506 1505 1504 1503 1501 1500 1499
1486 1484 1487 1488 1489 1490 1489 1489 1491 1498 1497 1497 1499 1490 1472 1475 1477 1478 1478 1481 1483 1485 1487 1489 1491 1493 1495 1498 1500 1501 1503 1504 1505 1505 1506 1505 1505 1504 1504 1503 1502 1501 1500 1499
1487 1486 1491 1493 1494 1492 1491 1490 1490 1489 1490 1493 1498 1487 1471 1473 1474 1476 1477 1478 1480 1482 1484 1486 1488 1490 1493 1495 1497 1499 1500 1501 1502 1503 1504 1504 1504 1503 1503 1502 1501 1500 1499 1498
1489 1484 1488 1495 1488 1484 1487 1489 1490 1490 1490 1487 1485 1479 1469 1469 1470 1472 1474 1475 1477 1479 1481 1483 1485 1487 1489 1492 1494 1496 1498 1499 1500 1501 1501 1502 1502 1502 1501 1500 1499 1498 1497 1496
1487 1483 1481 1481 1481 1483 1483 1483 1485 1486 1480 1480 1474 1471 1466 1464 1465 1467 1469 1471 1473 1475 1477 1479 1481 1484 1486 1488 1491 1493 1495 1496 1497 1498 1499 1500 1500 1499 1499 1498 1497 1496 1495 1494
1486 1484 1482 1482 1480 1481 1482 1478 1477 1478 1476 1474 1471 1468 1460 1460 1462 1463 1464 1466 1468 1470 1472 1474 1477 1480 1482 1485 1487 1489 1491 1493 1495 1496 1497 1497 1497 1497 1497 1496 1495 1494 1493 1492
1484 1483 1485 1482 1477 1480 1479 1468 1468 1469 1468 1468 1467 1460 1455 1456 1457 1458 1459 1460 1462 1464 1467 1469 1472 1475 1478 1481 1484 1486 1488 1490 1492 1493 1494 1495 1495 1495 1494 1493 1493 1492 1491 1490
1483 1482 1482 1481 1481 1488 1468 1461 1464 1465 1462 1459 1458 1456 1454 1454 1454 1454 1454 1455 1457 1459 1462 1465 1468 1471 1474 1477 1480 1483 1485 1487 1489 1490 1491 1492 1492 1492 1491 1491 1490 1489 1488 1487
1482 1481 1481 1481 1481 1474 1464 1460 1462 1463 1459 1454 1454 1453 1452 1452 1451 1448 1448 1450 1452 1455 1457 1460 1464 1467 1470 1473 1476 1479 1482 1484 1486 1487 1488 1489 1489 1489 1489 1488 1487 1486 1485 1485
1483 1481 1480 1479 1483 1479 1464 1459 1461 1462 1459 1454 1454 1452 1451 1451 1448 1443 1445 1446 1448 1450 1453 1456 1460 1463 1467 1470 1473 1476 1479 1481 1482 1484 1485 1486 1486 1486 1486 1485 1484 1484 1483 1482
1478 1479 1479 1476 1475 1465 1458 1460 1462 1465 1459 1456 1454 1453 1451 1450 1447 1446 1445 1444 1445 1447 1449 1452 1456 1459 1463 1466 1469 1472 1475 1477 1479 1481 1482 1482 1483 1483 1482 1482 1482 1481 1480 1479
1473 1472 1472 1471 1474 1468 1460 1461 1461 1460 1458 1456 1454 1453 1451 1448 1446 1445 1444 1443 1443 1444 1446 1449 1452 1455 1459 1462 1466 1469 1472 1474 1476 1477 1478 1479 1479 1480 1480 1479 1479 1478 1478 1477
1471 1469 1466 1466 1464 1462 1462 1462 1462 1461 1459 1456 1454 1452 1450 1446 1444 1443 1442 1441 1441 1442 1444 1446 1449 1452 1455 1458 1462 1465 1467 1470 1472 1474 1475 1476 1476 1477 1477 1477 1476 1476 1476 1476
1469 1471 1469 1465 1459 1460 1461 1461 1461 1460 1458 1455 1453 1450 1447 1445 1442 1440 1439 1438 1438 1439 1440 1442 1445 1448 1451 1454 1457 1461 1463 1466 1468 1470 1471 1473 1473 1474 1474 1474 1474 1474 1473 1473
1471 1471 1467 1463 1460 1459 1458 1459 1459 1457 1455 1452 1449 1447 1444 1441 1439 1437 1435 1434 1434 1435 1436 1438 1441 1443 1447 1450 1453 1456 1459 1462 1464 1466 1468 1469 1470 1471 1471 1471 1471 1471 1471 1470
1471 1469 1466 1461 1460 1460 1457 1457 1456 1454 1451 1448 1445 1442 1439 1437 1435 1433 1431 1430 1430 1430 1432 1433 1436 1438 1442 1445 1448 1451 1454 1457 1460 1463 1464 1465 1467 1467 1468 1468 1468 1468 1468 1468